[[{"header":{"parameterUnit":"m.s-1","parameterCategory":2,"la1":30.2991,"la2":30.254,"lo1":-89.0895,"lo2":-89.0444,"dy":0.0017,"dx":0.0017,"nx":28,"ny":28,"refTime":"2026-02-26T03:00:00:Z","depth":"0","parameterNumber":2,"parameterNumberName":"U-component_of_CURRENTS"},"data":[0,0,0,0,0,0,0,0,0,0,0,0,0,0,0,0,0,0,0,0,0,0,0,0,0,0,0,0,0,0,0,0,0,0,0,0,0,0,0,0,0,0,0,0,0,0,0,0,0,0,0,0,0,0,0,0,0,0,-0.2991,-0.2992,0,-0.3045,-0.3045,-0.3046,-0.3008,-0.3007,-0.3006,-0.3004,-0.2977,-0.2978,-0.2979,0,0,0,0,0,0,0,0,0,0,0,0,0,-0.288,-0.2882,-0.2991,-0.2992,-0.2993,-0.3045,-0.3045,-0.3046,-0.3009,-0.3007,-0.3005,-0.3004,-0.2977,-0.2978,-0.2979,0,0,0,0,0,0,0,0,0,0,0,0,0,-0.2928,-0.2882,-0.2991,-0.2983,-0.2983,-0.3045,-0.3045,-0.3046,-0.3009,-0.3007,-0.3005,-0.3003,-0.2977,-0.2978,-0.2979,-0.3028,0,0,-0.2982,-0.2982,0,0,0,0,0,0,0,0,-0.2925,-0.2932,-0.2983,-0.2983,-0.2983,-0.302,-0.2997,-0.3037,-0.301,-0.2996,-0.3004,-0.3002,-0.2988,-0.2988,-0.3,-0.3027,-0.3025,-0.2982,-0.2982,-0.2983,-0.2983,0,0,0,0,0,0,0,-0.2922,-0.2929,-0.301,-0.2984,-0.2984,-0.2985,-0.2988,-0.3004,-0.3,-0.2997,-0.2995,-0.3006,-0.2986,-0.2999,-0.2999,-0.3025,-0.2982,-0.2983,-0.2983,-0.2984,-0.3075,-0.3077,0,0,0,0,0,0,-0.2922,-0.2927,-0.3008,-0.3012,-0.2951,-0.2988,-0.2993,-0.3008,-0.3001,-0.3,-0.3008,-0.3004,-0.2999,-0.2998,-0.2998,-0.303,-0.2983,-0.2984,-0.2984,-0.3073,-0.3076,-0.3078,0,0,0,0,0,0,-0.292,-0.2929,-0.3006,-0.2972,-0.2982,-0.2993,-0.3011,-0.3011,-0.3014,-0.3011,-0.3006,-0.3011,-0.2997,-0.2996,-0.3016,-0.3029,-0.2984,-0.2985,-0.3071,-0.3074,-0.3077,-0.311,0,0,0,0,0,0,-0.2916,-0.2928,-0.2935,-0.2972,-0.2984,-0.3047,-0.3013,-0.3013,-0.3026,-0.3022,-0.3013,-0.3008,-0.2995,-0.3015,-0.3017,-0.3029,-0.2986,-0.3069,-0.3073,-0.3076,-0.3106,-0.3113,-0.3119,0,0,0,0,0,-0.2912,-0.2937,-0.2935,-0.2944,-0.2994,-0.3049,-0.3055,-0.3053,-0.3029,-0.3045,-0.3037,-0.3008,-0.3038,-0.3018,-0.302,-0.3032,-0.3067,-0.3071,-0.3076,-0.3103,-0.3112,-0.3119,0,0,0,0,0,0,-0.2891,-0.2937,-0.2935,-0.2971,-0.3007,-0.3043,-0.3058,-0.3058,-0.3068,-0.3055,-0.3036,-0.3034,-0.3056,-0.3051,-0.3029,-0.3073,-0.3047,-0.3052,-0.3068,-0.3076,-0.3082,-0.3064,-0.2986,0,0,0,0,0,-0.2892,-0.2917,-0.2964,-0.299,-0.301,-0.3033,-0.3051,-0.3058,-0.3075,-0.3076,-0.3071,-0.307,-0.3082,-0.3081,-0.3095,-0.3121,-0.3094,-0.3132,-0.3139,-0.3144,-0.3134,-0.3113,-0.3116,-0.3092,-0.3092,-0.3091,0,0,-0.2889,-0.2918,-0.293,-0.2986,-0.3009,-0.3051,-0.3037,-0.3075,-0.3099,-0.3073,-0.3095,-0.3097,-0.3097,-0.3125,-0.3134,-0.3115,-0.3141,-0.3149,-0.3154,-0.314,-0.3118,-0.3119,-0.3121,-0.3094,-0.3094,-0.3093,0,0,-0.2904,-0.2925,-0.2952,-0.2991,-0.3039,-0.3063,-0.3075,-0.3118,-0.3122,-0.316,-0.3141,-0.3149,-0.3175,-0.317,-0.3172,-0.3227,-0.3182,-0.3236,-0.3245,-0.3226,-0.3226,-0.3227,-0.3203,-0.3201,-0.3232,-0.3232,-0.3232,0,-0.2894,-0.2936,-0.297,-0.3013,-0.3038,-0.3068,-0.3104,-0.3133,-0.3173,-0.3177,-0.3169,-0.3194,-0.3193,-0.3208,-0.3225,-0.3237,-0.3216,-0.3209,-0.323,-0.323,-0.3229,-0.3205,-0.3202,-0.3234,-0.3234,-0.3234,-0.3234,0,-0.2934,-0.2967,-0.2991,-0.3047,-0.3086,-0.3125,-0.3173,-0.3202,-0.3208,-0.3224,-0.3245,-0.325,-0.3253,-0.3265,-0.326,-0.3265,-0.3249,-0.3243,-0.32,-0.3233,-0.3207,-0.3203,-0.3237,-0.3237,-0.3236,-0.3236,0,0,-0.2897,-0.2996,-0.3,-0.3025,-0.3103,-0.3136,-0.3188,-0.3232,-0.3247,-0.3277,-0.3283,-0.3309,-0.3294,-0.3296,-0.329,-0.3275,-0.3262,-0.3256,-0.3255,-0.3215,-0.3212,-0.3103,-0.3088,-0.3253,-0.3253,-0.3253,-0.3196,0,-0.2906,-0.2978,-0.303,-0.3086,-0.3122,-0.3173,-0.3216,-0.3259,-0.3286,-0.3307,-0.3305,-0.3318,-0.3313,-0.3308,-0.3295,-0.3278,-0.3252,-0.3277,-0.3201,-0.3199,-0.3082,-0.308,-0.294,-0.2869,-0.3192,-0.3192,-0.3191,0,-0.2911,-0.296,-0.3016,-0.3092,-0.3112,-0.315,-0.3202,-0.325,-0.3296,-0.3314,-0.3323,-0.3327,-0.3324,-0.3308,-0.3271,-0.3286,-0.3246,-0.3224,-0.3221,-0.3098,-0.3081,-0.289,-0.285,-0.2829,-0.3185,-0.3185,-0.3186,0,-0.2842,-0.2938,-0.2973,-0.3004,-0.3105,-0.3126,-0.3171,-0.3233,-0.3267,-0.3308,-0.3325,-0.3327,-0.3326,-0.3285,-0.3248,-0.3257,-0.3192,-0.3199,-0.3059,-0.3051,-0.2904,-0.2883,-0.2813,-0.3147,-0.3147,-0.3147,-0.3148,0,-0.2816,-0.284,-0.2941,-0.2961,-0.2994,-0.3079,-0.3114,-0.3165,-0.3231,-0.3261,-0.3309,-0.3319,-0.3319,-0.3291,-0.3244,-0.3131,-0.3184,-0.3044,-0.3021,-0.2914,-0.2896,-0.2848,-0.289,-0.3145,-0.3146,-0.3146,-0.3147,0,-0.2724,-0.2799,-0.2839,-0.2936,-0.2961,-0.2977,-0.3075,-0.3101,-0.3185,-0.3223,-0.3236,-0.3307,-0.3264,-0.3237,-0.3176,-0.3114,-0.2964,-0.2969,-0.284,-0.2801,-0.2631,-0.268,-0.2593,-0.2516,-0.2797,-0.2794,-0.2791,0,-0.2681,-0.2693,-0.2787,-0.2803,-0.2841,-0.2892,-0.2925,-0.3044,-0.3085,-0.3203,-0.3207,-0.3214,-0.3157,-0.3038,-0.2935,-0.2801,-0.2828,-0.2623,-0.2603,-0.258,-0.2621,-0.2674,-0.262,-0.2436,-0.2431,-0.2427,-0.2423,0,-0.2578,-0.261,-0.2644,-0.2684,-0.2718,-0.2767,-0.2832,-0.2866,-0.3004,-0.3033,-0.3059,-0.3022,-0.2933,-0.274,-0.2601,-0.2517,-0.2554,-0.2525,-0.2533,-0.2345,-0.2366,-0.2293,-0.2534,-0.2384,-0.2388,-0.2391,-0.2393,-0.2394,-0.2473,-0.2469,-0.2513,-0.2538,-0.2582,-0.2612,-0.2608,-0.2682,-0.2709,-0.2725,-0.2818,-0.2704,-0.2604,-0.2365,-0.2286,-0.2132,-0.2237,-0.2072,-0.214,-0.22,-0.2099,-0.2243,-0.2049,-0.2051,-0.2053,-0.2054,-0.2055,0,-0.233,-0.2348,-0.2365,-0.2397,-0.24,-0.2468,-0.2517,-0.2478,-0.2442,-0.2451,-0.2409,-0.2275,-0.2083,-0.2026,-0.1885,-0.1789,-0.1767,-0.1773,-0.1829,-0.1794,-0.1925,-0.1879,-0.1598,-0.1598,-0.1599,-0.1599,-0.1599,-0.1599,-0.2253,-0.222,-0.2241,-0.2201,-0.2227,-0.2173,-0.2169,-0.2089,-0.2054,-0.1901,-0.1831,-0.1809,-0.1796,-0.1908,-0.1769,-0.1674,-0.1666,-0.1609,-0.1671,-0.1793,-0.1828,-0.1861,-0.1825,-0.1538,-0.1538,-0.1448,-0.1448,-0.1448]},{"header":{"parameterUnit":"m.s-1","parameterCategory":2,"la1":30.2991,"la2":30.254,"lo1":-89.0895,"lo2":-89.0444,"dy":0.0017,"dx":0.0017,"nx":28,"ny":28,"refTime":"2026-02-26T03:00:00:Z","depth":"0","parameterNumber":3,"parameterNumberName":"V-component_of_CURRENTS"},"data":[0,0,0,0,0,0,0,0,0,0,0,0,0,0,0,0,0,0,0,0,0,0,0,0,0,0,0,0,0,0,0,0,0,0,0,0,0,0,0,0,0,0,0,0,0,0,0,0,0,0,0,0,0,0,0,0,0,0,-0.0176,-0.0175,0,-0.0079,-0.0078,-0.0076,-0.0006,-0.0005,-0.0005,-0.0005,0.0147,0.0151,0.0155,0,0,0,0,0,0,0,0,0,0,0,0,0,-0.0236,-0.0236,-0.0176,-0.0175,-0.0174,-0.0079,-0.0077,-0.0076,-0.0006,-0.0005,-0.0005,-0.0005,0.0146,0.0151,0.0155,0,0,0,0,0,0,0,0,0,0,0,0,0,-0.018,-0.0236,-0.0176,-0.0129,-0.0124,-0.0079,-0.0077,-0.0076,-0.0006,-0.0005,-0.0005,-0.0004,0.0145,0.015,0.0156,0.0178,0,0,0.0173,0.0175,0,0,0,0,0,0,0,0,-0.0183,-0.0177,-0.0137,-0.0132,-0.0127,-0.0056,-0.0043,0.0011,-0.0006,-0.0048,-0.0005,-0.0004,0.0083,0.0093,0.0113,0.0186,0.0192,0.0173,0.0176,0.0179,0.018,0,0,0,0,0,0,0,-0.0187,-0.0181,-0.0135,-0.0136,-0.013,-0.0091,-0.0083,-0.0032,0.0015,-0.0045,-0.004,-0.0033,0.0086,0.0107,0.0117,0.0194,0.0173,0.0178,0.0181,0.0183,0.0322,0.0322,0,0,0,0,0,0,-0.0208,-0.0185,-0.0138,-0.0133,-0.0157,-0.0091,-0.0081,-0.0077,0.0014,0.0027,-0.0034,-0.003,0.0097,0.011,0.0123,0.0161,0.0179,0.0184,0.0187,0.0321,0.0322,0.0322,0,0,0,0,0,0,-0.0209,-0.0205,-0.0142,-0.0158,-0.0148,-0.0091,-0.0087,-0.0076,-0.0055,0.0021,0.0036,-0.0025,0.0098,0.0115,0.0168,0.0167,0.0186,0.0192,0.0321,0.0321,0.0322,0.0233,0,0,0,0,0,0,-0.0212,-0.0206,-0.0212,-0.016,-0.0148,-0.0126,-0.0087,-0.0074,-0.0053,-0.0047,0.0034,0.0049,0.01,0.0159,0.0173,0.0175,0.0196,0.032,0.0321,0.0322,0.0236,0.0231,0.0226,0,0,0,0,0,-0.0214,-0.023,-0.0213,-0.0207,-0.0157,-0.0127,-0.0117,-0.0073,-0.0054,-0.0051,0.0009,0.0046,0.0174,0.0164,0.018,0.0183,0.032,0.0321,0.0322,0.0238,0.0232,0.0227,0,0,0,0,0,0,-0.0259,-0.0223,-0.0203,-0.0206,-0.0173,-0.0116,-0.0112,-0.0081,-0.0032,-0.0026,0.0049,0.0068,0.0114,0.0163,0.015,0.0227,0.0254,0.0258,0.0184,0.0179,0.0175,0.0152,0.02,0,0,0,0,0,-0.0273,-0.0275,-0.023,-0.0232,-0.022,-0.0167,-0.015,-0.0121,-0.0072,-0.005,0.0008,0.0074,0.0131,0.0164,0.0219,0.0259,0.0311,0.0274,0.027,0.0265,0.0259,0.0327,0.0327,0.0325,0.0325,0.0325,0,0,-0.0291,-0.0272,-0.0272,-0.0242,-0.0212,-0.0205,-0.0155,-0.0137,-0.0125,-0.0041,-0.0006,0.0056,0.0137,0.0183,0.0209,0.0223,0.0296,0.0266,0.0261,0.0258,0.0327,0.0328,0.0328,0.0325,0.0325,0.0325,0,0,-0.0335,-0.0312,-0.0329,-0.0308,-0.0275,-0.0239,-0.0239,-0.0185,-0.0155,-0.0115,-0.0049,0.0011,0.0094,0.0155,0.0196,0.02,0.0265,0.0218,0.018,0.0245,0.0245,0.0246,0.0317,0.0325,0.0219,0.0219,0.0219,0,-0.0361,-0.0374,-0.0329,-0.034,-0.0331,-0.0261,-0.0276,-0.0234,-0.0168,-0.0143,-0.0117,0.0015,0.0081,0.0148,0.0152,0.0188,0.0236,0.019,0.0237,0.0239,0.0241,0.0314,0.0324,0.0215,0.0215,0.0216,0.0216,0,-0.0414,-0.0424,-0.0432,-0.0421,-0.0403,-0.0404,-0.0346,-0.0318,-0.0271,-0.022,-0.015,-0.0053,0.0026,0.0059,0.0109,0.0161,0.0194,0.0217,0.0243,0.0235,0.0314,0.0325,0.0209,0.021,0.0212,0.0213,0,0,-0.0475,-0.0474,-0.0477,-0.049,-0.0449,-0.0442,-0.0418,-0.0374,-0.0355,-0.0275,-0.0238,-0.013,-0.007,-0.0019,0.0058,0.012,0.0184,0.0167,0.0173,0.0224,0.0333,0.0396,0.0416,0.021,0.0211,0.0213,0.0383,0,-0.0532,-0.0583,-0.0555,-0.0588,-0.0609,-0.0541,-0.0526,-0.0472,-0.0405,-0.0348,-0.0235,-0.0168,-0.01,-0.0058,0.0012,0.0144,0.021,0.0137,0.0346,0.0352,0.0397,0.043,0.0468,0.0626,0.0395,0.0397,0.0398,0,-0.0595,-0.0622,-0.0676,-0.0681,-0.0681,-0.0681,-0.064,-0.0614,-0.051,-0.0457,-0.0364,-0.0266,-0.0147,-0.0097,0.0115,0.0064,0.0185,0.0285,0.0295,0.0391,0.0437,0.0598,0.0657,0.0842,0.0417,0.0415,0.0414,0,-0.0673,-0.0703,-0.0752,-0.0755,-0.0746,-0.0748,-0.0729,-0.065,-0.0624,-0.0517,-0.0477,-0.0325,-0.0229,-0.0076,0.015,0.0129,0.0387,0.0387,0.056,0.0566,0.066,0.0672,0.0911,0.0525,0.0524,0.0524,0.0523,0,-0.075,-0.0787,-0.0795,-0.0825,-0.0872,-0.0828,-0.084,-0.0795,-0.0717,-0.0672,-0.0538,-0.0445,-0.022,-0.0034,0.0137,0.0405,0.0387,0.0565,0.0618,0.0633,0.064,0.0854,0.091,0.053,0.0529,0.0527,0.0526,0,-0.0829,-0.0834,-0.0893,-0.0908,-0.0914,-0.0945,-0.0927,-0.0922,-0.084,-0.0773,-0.074,-0.0518,-0.0261,-0.0024,0.0268,0.041,0.0764,0.0734,0.0743,0.0793,0.1092,0.1138,0.1419,0.1533,0.0934,0.0936,0.0939,0,-0.0875,-0.0916,-0.0967,-0.1005,-0.1015,-0.1045,-0.1059,-0.0996,-0.0973,-0.0794,-0.0758,-0.0494,-0.0267,0.0182,0.0474,0.079,0.0922,0.0998,0.096,0.1133,0.1225,0.1256,0.1333,0.1059,0.1062,0.1064,0.1066,0,-0.096,-0.0973,-0.102,-0.1105,-0.1141,-0.1173,-0.1176,-0.117,-0.1059,-0.0951,-0.0725,-0.0521,-0.008,0.033,0.0723,0.0907,0.1132,0.1057,0.1244,0.1352,0.1397,0.1523,0.0923,0.1088,0.1086,0.1084,0.1083,0.1082,-0.1008,-0.1064,-0.1123,-0.1195,-0.124,-0.1264,-0.1235,-0.1196,-0.1102,-0.0879,-0.0704,-0.0338,0.0188,0.0766,0.0978,0.1407,0.1349,0.1527,0.1574,0.1596,0.1695,0.1144,0.1356,0.1356,0.1355,0.1354,0.1354,0,-0.1065,-0.1122,-0.1206,-0.1271,-0.1309,-0.1312,-0.1275,-0.1178,-0.101,-0.0812,-0.0544,0.0081,0.0617,0.1086,0.1669,0.1908,0.1948,0.2027,0.2086,0.2143,0.1679,0.1673,0.1955,0.1955,0.1955,0.1955,0.1954,0.1954,-0.1096,-0.1185,-0.1228,-0.1301,-0.1326,-0.1254,-0.119,-0.1029,-0.0843,-0.0432,-0.0065,0.0219,0.0861,0.1779,0.2344,0.2395,0.2601,0.2573,0.2692,0.2365,0.2321,0.228,0.2292,0.2699,0.27,0.3149,0.3154,0.3157]}],[{"header":{"parameterUnit":"m.s-1","parameterCategory":2,"la1":30.2991,"la2":30.254,"lo1":-89.0895,"lo2":-89.0444,"dy":0.0017,"dx":0.0017,"nx":28,"ny":28,"refTime":"2026-02-26T03:00:00:Z","depth":"2","parameterNumber":2,"parameterNumberName":"U-component_of_CURRENTS"},"data":[0,0,0,0,0,0,0,0,0,0,0,0,0,0,0,0,0,0,0,0,0,0,0,0,0,0,0,0,0,0,0,0,0,0,0,0,0,0,0,0,0,0,0,0,0,0,0,0,0,0,0,0,0,0,0,0,0,0,-0.2805,-0.2806,0,-0.2853,-0.2853,-0.2853,-0.2825,-0.2823,-0.2822,-0.2821,-0.2802,-0.2803,-0.2803,0,0,0,0,0,0,0,0,0,0,0,0,0,-0.2704,-0.2706,-0.2805,-0.2806,-0.2806,-0.2853,-0.2853,-0.2853,-0.2825,-0.2823,-0.2822,-0.2821,-0.2802,-0.2803,-0.2803,0,0,0,0,0,0,0,0,0,0,0,0,0,-0.2747,-0.2707,-0.2805,-0.28,-0.28,-0.2852,-0.2853,-0.2853,-0.2825,-0.2823,-0.2822,-0.282,-0.2802,-0.2803,-0.2803,-0.2843,0,0,-0.2806,-0.2806,0,0,0,0,0,0,0,0,-0.2745,-0.2751,-0.28,-0.28,-0.28,-0.2833,-0.2811,-0.2847,-0.2826,-0.2813,-0.2821,-0.2819,-0.2809,-0.2809,-0.2819,-0.2842,-0.2841,-0.2806,-0.2807,-0.2807,-0.2807,0,0,0,0,0,0,0,-0.2742,-0.2748,-0.2821,-0.2801,-0.2801,-0.2801,-0.2804,-0.2818,-0.2817,-0.2814,-0.2812,-0.2822,-0.2808,-0.2819,-0.2819,-0.2841,-0.2806,-0.2807,-0.2807,-0.2808,-0.2891,-0.2893,0,0,0,0,0,0,-0.2743,-0.2746,-0.282,-0.2823,-0.2771,-0.2804,-0.2808,-0.2822,-0.2818,-0.2817,-0.2824,-0.2821,-0.2818,-0.2818,-0.2818,-0.2854,-0.2807,-0.2808,-0.2808,-0.289,-0.2892,-0.2894,0,0,0,0,0,0,-0.274,-0.2749,-0.2818,-0.2787,-0.2796,-0.2808,-0.2824,-0.2824,-0.2831,-0.2827,-0.2824,-0.2829,-0.2817,-0.2817,-0.2837,-0.2853,-0.2808,-0.2809,-0.2888,-0.289,-0.2893,-0.2932,0,0,0,0,0,0,-0.2737,-0.2748,-0.2755,-0.2787,-0.2798,-0.2854,-0.2826,-0.2826,-0.2841,-0.2837,-0.2831,-0.2828,-0.2816,-0.2836,-0.2838,-0.2853,-0.2809,-0.2885,-0.2889,-0.2892,-0.2928,-0.2935,-0.2941,0,0,0,0,0,-0.2734,-0.2756,-0.2755,-0.2764,-0.2809,-0.2856,-0.2861,-0.2861,-0.2843,-0.2858,-0.2853,-0.2828,-0.2857,-0.2838,-0.284,-0.2856,-0.2884,-0.2888,-0.2892,-0.2925,-0.2934,-0.2941,0,0,0,0,0,0,-0.2715,-0.2756,-0.2756,-0.2788,-0.2821,-0.2852,-0.2865,-0.2868,-0.2878,-0.2869,-0.2853,-0.2851,-0.2876,-0.2869,-0.2848,-0.2892,-0.2866,-0.287,-0.2891,-0.2899,-0.2905,-0.289,-0.281,0,0,0,0,0,-0.2717,-0.274,-0.2781,-0.2805,-0.2823,-0.2844,-0.2861,-0.2868,-0.2885,-0.2887,-0.2885,-0.2886,-0.2898,-0.2899,-0.291,-0.2937,-0.2911,-0.2949,-0.2956,-0.2961,-0.2952,-0.2936,-0.2939,-0.2906,-0.2906,-0.2906,0,0,-0.2715,-0.2741,-0.2752,-0.2802,-0.2822,-0.286,-0.2849,-0.2884,-0.2908,-0.2885,-0.2909,-0.2912,-0.2912,-0.294,-0.2949,-0.2931,-0.296,-0.2966,-0.297,-0.2958,-0.294,-0.2943,-0.2945,-0.2909,-0.2909,-0.2908,0,0,-0.2727,-0.2748,-0.2772,-0.2807,-0.2851,-0.2872,-0.2884,-0.2924,-0.2931,-0.2968,-0.2953,-0.2963,-0.2988,-0.2985,-0.2987,-0.304,-0.2999,-0.305,-0.3064,-0.3049,-0.305,-0.3051,-0.3027,-0.3026,-0.3048,-0.3048,-0.3048,0,-0.2719,-0.2757,-0.2787,-0.2826,-0.285,-0.2879,-0.2912,-0.294,-0.2978,-0.2985,-0.2979,-0.3008,-0.3007,-0.3025,-0.3042,-0.3051,-0.3033,-0.303,-0.3054,-0.3055,-0.3055,-0.303,-0.3028,-0.305,-0.305,-0.305,-0.305,0,-0.2753,-0.2785,-0.2806,-0.2858,-0.2893,-0.293,-0.2975,-0.3004,-0.3015,-0.3033,-0.3059,-0.3064,-0.3071,-0.3082,-0.3077,-0.3088,-0.3072,-0.3066,-0.3026,-0.306,-0.3032,-0.3029,-0.3054,-0.3053,-0.3052,-0.3052,0,0,-0.272,-0.281,-0.2813,-0.2838,-0.291,-0.294,-0.2991,-0.3036,-0.3055,-0.3087,-0.31,-0.3126,-0.3117,-0.3119,-0.3116,-0.3104,-0.3096,-0.3087,-0.3085,-0.3048,-0.3055,-0.2954,-0.2941,-0.3092,-0.3092,-0.3092,-0.3036,0,-0.2728,-0.2792,-0.284,-0.2893,-0.2927,-0.2977,-0.302,-0.3064,-0.3094,-0.312,-0.3124,-0.3142,-0.3136,-0.3137,-0.3128,-0.3111,-0.309,-0.3111,-0.304,-0.3038,-0.2931,-0.2934,-0.2719,-0.2643,-0.3032,-0.3032,-0.3031,0,-0.2731,-0.2776,-0.2829,-0.2903,-0.2921,-0.2959,-0.3016,-0.3062,-0.3113,-0.3135,-0.3151,-0.3159,-0.3161,-0.3146,-0.3115,-0.313,-0.309,-0.3069,-0.3066,-0.295,-0.293,-0.2673,-0.2622,-0.3026,-0.3026,-0.3027,-0.3027,0,-0.267,-0.2758,-0.2794,-0.2822,-0.2918,-0.2942,-0.2988,-0.3053,-0.3087,-0.3136,-0.3156,-0.3166,-0.3167,-0.3133,-0.3097,-0.3105,-0.3046,-0.3051,-0.2918,-0.2911,-0.27,-0.2674,-0.3005,-0.3005,-0.3005,-0.3005,-0.3005,0,-0.2647,-0.2672,-0.2767,-0.2787,-0.2823,-0.2904,-0.2944,-0.2996,-0.3063,-0.309,-0.3147,-0.3153,-0.3163,-0.3139,-0.3095,-0.299,-0.304,-0.2907,-0.2884,-0.271,-0.2687,-0.2999,-0.2999,-0.3003,-0.3004,-0.3004,-0.3004,0,-0.2566,-0.2635,-0.2675,-0.2769,-0.2794,-0.2815,-0.2909,-0.2936,-0.3022,-0.3056,-0.3071,-0.3139,-0.3103,-0.3088,-0.3033,-0.2974,-0.2894,-0.2839,-0.2631,-0.2584,-0.2771,-0.2774,-0.2685,-0.2681,-0.2677,-0.2674,-0.2672,0,-0.2527,-0.2541,-0.2632,-0.2647,-0.2685,-0.2738,-0.277,-0.2884,-0.2919,-0.3028,-0.3026,-0.3042,-0.2988,-0.2888,-0.2788,-0.2671,-0.2779,-0.2428,-0.2399,-0.2748,-0.2735,-0.2744,-0.2752,-0.2142,-0.2135,-0.213,-0.2125,0,-0.2436,-0.2469,-0.2501,-0.2538,-0.2571,-0.2614,-0.2673,-0.2694,-0.282,-0.2846,-0.2856,-0.2824,-0.2754,-0.2536,-0.2425,-0.2339,-0.2433,-0.2312,-0.2712,-0.2262,-0.2232,-0.2222,-0.2248,-0.2077,-0.2082,-0.2085,-0.2088,-0.209,-0.2343,-0.2339,-0.2379,-0.24,-0.244,-0.2449,-0.2426,-0.2482,-0.249,-0.2474,-0.2585,-0.2451,-0.2439,-0.2121,-0.201,-0.1932,-0.2098,-0.2012,-0.203,-0.2053,-0.2006,-0.1972,-0.1759,-0.1762,-0.1764,-0.1766,-0.1768,0,-0.2212,-0.2225,-0.2237,-0.225,-0.222,-0.2306,-0.2326,-0.223,-0.2148,-0.2173,-0.2123,-0.1864,-0.1724,-0.172,-0.1511,-0.1479,-0.148,-0.1432,-0.1434,-0.1482,-0.1524,-0.1453,-0.1057,-0.1055,-0.1053,-0.1052,0,0,-0.2142,-0.2104,-0.2114,-0.2018,-0.2027,-0.1927,-0.19,-0.1748,-0.1692,-0.1531,-0.147,-0.159,-0.1634,-0.1331,-0.1278,-0.113,-0.1293,-0.1072,-0.1639,-0.1686,-0.1726,-0.185,-0.1791,0,0,0,0,0]},{"header":{"parameterUnit":"m.s-1","parameterCategory":2,"la1":30.2991,"la2":30.254,"lo1":-89.0895,"lo2":-89.0444,"dy":0.0017,"dx":0.0017,"nx":28,"ny":28,"refTime":"2026-02-26T03:00:00:Z","depth":"2","parameterNumber":3,"parameterNumberName":"V-component_of_CURRENTS"},"data":[0,0,0,0,0,0,0,0,0,0,0,0,0,0,0,0,0,0,0,0,0,0,0,0,0,0,0,0,0,0,0,0,0,0,0,0,0,0,0,0,0,0,0,0,0,0,0,0,0,0,0,0,0,0,0,0,0,0,-0.0279,-0.0278,0,-0.0193,-0.0192,-0.0191,-0.0123,-0.0123,-0.0122,-0.0122,0.0017,0.002,0.0024,0,0,0,0,0,0,0,0,0,0,0,0,0,-0.0332,-0.0331,-0.0279,-0.0278,-0.0277,-0.0194,-0.0192,-0.0191,-0.0123,-0.0123,-0.0122,-0.0122,0.0016,0.002,0.0024,0,0,0,0,0,0,0,0,0,0,0,0,0,-0.0282,-0.0331,-0.0279,-0.0235,-0.023,-0.0194,-0.0192,-0.019,-0.0124,-0.0123,-0.0122,-0.0121,0.0015,0.002,0.0025,0.004,0,0,0.0039,0.0042,0,0,0,0,0,0,0,0,-0.0285,-0.028,-0.0243,-0.0238,-0.0233,-0.017,-0.016,-0.0111,-0.0124,-0.0162,-0.0122,-0.0121,-0.0042,-0.0033,-0.0016,0.0046,0.0052,0.004,0.0043,0.0045,0.0046,0,0,0,0,0,0,0,-0.0289,-0.0283,-0.0243,-0.0242,-0.0236,-0.0202,-0.0194,-0.015,-0.0105,-0.0159,-0.0154,-0.0148,-0.0039,-0.0021,-0.0012,0.0054,0.004,0.0044,0.0047,0.0049,0.0162,0.0162,0,0,0,0,0,0,-0.0307,-0.0287,-0.0246,-0.0241,-0.026,-0.0202,-0.0193,-0.0189,-0.0106,-0.0094,-0.0149,-0.0145,-0.003,-0.0018,-0.0007,0.0026,0.0045,0.0049,0.0052,0.0162,0.0162,0.0162,0,0,0,0,0,0,-0.0308,-0.0304,-0.0249,-0.0263,-0.0254,-0.0202,-0.0198,-0.0188,-0.0169,-0.01,-0.0086,-0.014,-0.0029,-0.0014,0.0031,0.0032,0.0052,0.0056,0.0161,0.0162,0.0162,0.0086,0,0,0,0,0,0,-0.031,-0.0305,-0.0311,-0.0265,-0.0254,-0.0238,-0.0199,-0.0187,-0.0168,-0.0162,-0.0088,-0.0074,-0.0027,0.0024,0.0036,0.0039,0.006,0.0161,0.0162,0.0162,0.0089,0.0084,0.008,0,0,0,0,0,-0.0312,-0.0328,-0.0311,-0.0307,-0.0263,-0.0239,-0.0231,-0.0189,-0.0168,-0.0168,-0.0113,-0.0076,0.0034,0.0027,0.0042,0.0046,0.0161,0.0162,0.0162,0.0091,0.0085,0.008,0,0,0,0,0,0,-0.0354,-0.0322,-0.0302,-0.0307,-0.0279,-0.0228,-0.0226,-0.0196,-0.0153,-0.0146,-0.0076,-0.0059,-0.002,0.0023,0.0014,0.008,0.0104,0.0107,0.0045,0.004,0.0036,0.002,0.0064,0,0,0,0,0,-0.0367,-0.0369,-0.033,-0.0334,-0.0323,-0.0275,-0.026,-0.0233,-0.019,-0.017,-0.0117,-0.0058,-0.0009,0.0022,0.0068,0.0104,0.0153,0.0117,0.0113,0.0108,0.0106,0.0176,0.0177,0.0162,0.0162,0.0162,0,0,-0.0384,-0.0367,-0.0368,-0.0343,-0.0316,-0.0311,-0.0264,-0.025,-0.0239,-0.0161,-0.013,-0.0076,-0.0005,0.0035,0.0057,0.0072,0.0139,0.0108,0.0104,0.0105,0.0176,0.0177,0.0179,0.0162,0.0162,0.0162,0,0,-0.0426,-0.0405,-0.0422,-0.0404,-0.0376,-0.0343,-0.0344,-0.0296,-0.0268,-0.0234,-0.0174,-0.0119,-0.0049,0.0008,0.0045,0.0044,0.0108,0.0058,0.003,0.0097,0.0098,0.01,0.0164,0.0173,0.0061,0.0061,0.0061,0,-0.0449,-0.0462,-0.0423,-0.0434,-0.0426,-0.0364,-0.0377,-0.034,-0.0283,-0.0257,-0.0236,-0.0118,-0.006,0.0004,0.0005,0.0034,0.008,0.0041,0.009,0.0093,0.0096,0.0162,0.0172,0.0058,0.0058,0.0058,0.0059,0,-0.0501,-0.0509,-0.0518,-0.0509,-0.0493,-0.0495,-0.0443,-0.0419,-0.0375,-0.0328,-0.0263,-0.0178,-0.0104,-0.0077,-0.0035,0.002,0.0047,0.0069,0.0099,0.0093,0.0163,0.0175,0.0052,0.0054,0.0055,0.0056,0,0,-0.0558,-0.0557,-0.056,-0.0569,-0.0534,-0.0529,-0.0506,-0.0464,-0.0444,-0.0373,-0.0333,-0.0239,-0.0183,-0.0137,-0.0069,-0.0006,0.0059,0.0035,0.004,0.009,0.0207,0.0244,0.0261,0.0087,0.0089,0.009,0.0245,0,-0.061,-0.0656,-0.0631,-0.066,-0.0677,-0.0615,-0.0601,-0.055,-0.0488,-0.0433,-0.0327,-0.0265,-0.0207,-0.0169,-0.0098,0.002,0.0087,0.0015,0.0213,0.0219,0.0245,0.0275,0.0225,0.0361,0.0257,0.0259,0.0261,0,-0.0669,-0.0692,-0.0739,-0.0739,-0.0738,-0.0739,-0.0697,-0.0673,-0.0574,-0.0524,-0.0433,-0.0344,-0.0231,-0.0188,0.0011,-0.0039,0.0074,0.0165,0.0174,0.0242,0.0278,0.0352,0.0387,0.0282,0.028,0.0278,0.0277,0,-0.0737,-0.0763,-0.0804,-0.0806,-0.0795,-0.0796,-0.0778,-0.0703,-0.0679,-0.0573,-0.0538,-0.039,-0.0305,-0.0155,0.0043,0.0027,0.0263,0.027,0.0412,0.0416,0.0432,0.0434,0.0407,0.0407,0.0407,0.0406,0.0406,0,-0.0806,-0.0836,-0.0843,-0.0869,-0.0908,-0.0867,-0.0877,-0.0833,-0.076,-0.0725,-0.059,-0.0515,-0.0293,-0.0126,0.0035,0.027,0.0266,0.0418,0.0464,0.0404,0.0403,0.0376,0.0371,0.0412,0.0411,0.041,0.0409,0,-0.0876,-0.0879,-0.093,-0.0941,-0.0946,-0.0973,-0.0959,-0.0956,-0.0878,-0.0825,-0.0793,-0.0593,-0.0366,-0.0137,0.0136,0.0269,0.048,0.0563,0.048,0.0512,0.0586,0.0575,0.073,0.0733,0.0735,0.0737,0.0739,0,-0.0917,-0.0952,-0.0997,-0.1033,-0.1043,-0.107,-0.1085,-0.1026,-0.1009,-0.0863,-0.0837,-0.0604,-0.042,-0.0007,0.0272,0.0571,0.057,0.0689,0.0652,0.0593,0.0622,0.0607,0.0593,0.0646,0.0647,0.0648,0.0648,0,-0.0993,-0.1005,-0.1047,-0.1128,-0.1164,-0.1198,-0.1205,-0.1207,-0.1115,-0.1038,-0.0873,-0.071,-0.0306,0.0031,0.0413,0.0576,0.0632,0.0711,0.0695,0.0564,0.0525,0.0549,0.0536,0.0653,0.0653,0.0652,0.0652,0.0652,-0.1037,-0.1089,-0.1145,-0.1215,-0.1263,-0.1301,-0.1326,-0.1287,-0.1234,-0.1082,-0.0911,-0.0623,-0.0322,0.0241,0.0495,0.0739,0.0734,0.0781,0.0775,0.0769,0.0723,0.069,0.0841,0.0841,0.0842,0.0842,0.0843,0,-0.1093,-0.1147,-0.1226,-0.1301,-0.1364,-0.1367,-0.1387,-0.1376,-0.1298,-0.1072,-0.0875,-0.0498,-0.0113,0.0219,0.0604,0.0813,0.0782,0.0844,0.0751,0.0745,0.0739,0.0688,0.0799,0.0799,0.08,0.0801,0,0,-0.1122,-0.1209,-0.1251,-0.1364,-0.1416,-0.1513,-0.1525,-0.1436,-0.1288,-0.1045,-0.0783,-0.0481,-0.0079,0.0177,0.0432,0.0635,0.0633,0.0652,0.0662,0.0513,0.0506,0.0678,0.059,0,0,0,0,0]}],[{"header":{"parameterUnit":"m.s-1","parameterCategory":2,"la1":30.2991,"la2":30.254,"lo1":-89.0895,"lo2":-89.0444,"dy":0.0017,"dx":0.0017,"nx":28,"ny":28,"refTime":"2026-02-26T03:00:00:Z","depth":"4","parameterNumber":2,"parameterNumberName":"U-component_of_CURRENTS"},"data":[0,0,0,0,0,0,0,0,0,0,0,0,0,0,0,0,0,0,0,0,0,0,0,0,0,0,0,0,0,0,0,0,0,0,0,0,0,0,0,0,0,0,0,0,0,0,0,0,0,0,0,0,0,0,0,0,0,0,-0.1982,-0.1983,0,-0.2061,-0.2062,-0.2063,-0.2104,-0.2104,-0.2104,-0.2105,-0.2169,-0.2171,-0.2172,0,0,0,0,0,0,0,0,0,0,0,0,0,-0.1863,-0.1864,-0.1981,-0.1983,-0.1984,-0.2061,-0.2062,-0.2063,-0.2104,-0.2104,-0.2105,-0.2105,-0.2169,-0.217,-0.2172,0,0,0,0,0,0,0,0,0,0,0,0,0,-0.1924,-0.1865,-0.1981,-0.2015,-0.2019,-0.2061,-0.2062,-0.2063,-0.2104,-0.2104,-0.2105,-0.2105,-0.2168,-0.217,-0.2172,-0.2179,0,0,-0.2179,-0.218,0,0,0,0,0,0,0,0,-0.192,-0.1928,-0.2009,-0.2013,-0.2017,-0.2075,-0.2044,-0.2102,-0.2104,-0.207,-0.2105,-0.2105,-0.2137,-0.2142,-0.2154,-0.2182,-0.2185,-0.2179,-0.2181,-0.2182,-0.2182,0,0,0,0,0,0,0,-0.1916,-0.1924,-0.2011,-0.201,-0.2015,-0.2026,-0.2035,-0.2055,-0.2099,-0.2073,-0.2076,-0.2088,-0.2139,-0.2151,-0.2155,-0.2186,-0.2179,-0.2181,-0.2183,-0.2184,-0.2307,-0.2309,0,0,0,0,0,0,-0.191,-0.1921,-0.2009,-0.2014,-0.1971,-0.2028,-0.2037,-0.2054,-0.2099,-0.2107,-0.2088,-0.209,-0.2147,-0.2153,-0.2158,-0.2245,-0.2182,-0.2184,-0.2185,-0.2305,-0.2307,-0.2309,0,0,0,0,0,0,-0.1907,-0.1917,-0.2005,-0.197,-0.1982,-0.203,-0.2048,-0.2056,-0.21,-0.2111,-0.2118,-0.2128,-0.2148,-0.2155,-0.2209,-0.2244,-0.2185,-0.2187,-0.2303,-0.2306,-0.2308,-0.2369,0,0,0,0,0,0,-0.1904,-0.1916,-0.1941,-0.197,-0.1984,-0.2052,-0.2048,-0.2057,-0.2106,-0.211,-0.2147,-0.2152,-0.2149,-0.2206,-0.2211,-0.2246,-0.2189,-0.23,-0.2304,-0.2307,-0.2365,-0.2374,-0.2381,0,0,0,0,0,-0.1899,-0.1928,-0.1942,-0.1954,-0.2013,-0.2054,-0.2063,-0.2095,-0.2108,-0.2135,-0.2164,-0.2152,-0.2232,-0.221,-0.2215,-0.2252,-0.2299,-0.2303,-0.2307,-0.2361,-0.2372,-0.2381,0,0,0,0,0,0,-0.1892,-0.1936,-0.1952,-0.1995,-0.2033,-0.2062,-0.2096,-0.2116,-0.216,-0.2174,-0.2179,-0.2186,-0.2245,-0.2244,-0.2219,-0.2299,-0.2263,-0.2269,-0.2302,-0.2312,-0.232,-0.2307,-0.2191,0,0,0,0,0,-0.1902,-0.1936,-0.1975,-0.2013,-0.2035,-0.2072,-0.2099,-0.2123,-0.2159,-0.218,-0.2207,-0.2236,-0.2263,-0.2285,-0.2308,-0.2354,-0.2328,-0.2382,-0.239,-0.2397,-0.2392,-0.2389,-0.2396,-0.2324,-0.2324,-0.2324,0,0,-0.1911,-0.1939,-0.1961,-0.2015,-0.2047,-0.2087,-0.209,-0.2144,-0.2183,-0.2179,-0.2251,-0.227,-0.2283,-0.2334,-0.2361,-0.2342,-0.2405,-0.2403,-0.2408,-0.2399,-0.2394,-0.2401,-0.2407,-0.2327,-0.2326,-0.2326,0,0,-0.1931,-0.1972,-0.2004,-0.204,-0.2098,-0.2122,-0.2145,-0.2198,-0.2232,-0.2296,-0.2302,-0.2342,-0.2395,-0.2404,-0.2414,-0.2483,-0.245,-0.2502,-0.2534,-0.2533,-0.2538,-0.2542,-0.2514,-0.2516,-0.2505,-0.2506,-0.2506,0,-0.1942,-0.1985,-0.2021,-0.206,-0.2096,-0.2141,-0.2182,-0.2224,-0.2291,-0.2319,-0.2331,-0.2407,-0.2421,-0.2464,-0.2491,-0.25,-0.2487,-0.2493,-0.2541,-0.2545,-0.2548,-0.2519,-0.2519,-0.2509,-0.2509,-0.2508,-0.2508,0,-0.1972,-0.2023,-0.2048,-0.211,-0.2154,-0.2202,-0.2257,-0.2312,-0.2359,-0.2391,-0.2462,-0.2484,-0.2521,-0.2541,-0.2539,-0.2578,-0.2557,-0.255,-0.2509,-0.2558,-0.2525,-0.2524,-0.2514,-0.2513,-0.2512,-0.2511,0,0,-0.1947,-0.205,-0.2062,-0.2101,-0.2187,-0.2221,-0.2298,-0.2364,-0.2411,-0.2478,-0.2526,-0.2581,-0.2593,-0.2604,-0.2611,-0.2617,-0.263,-0.2601,-0.26,-0.2562,-0.2613,-0.2442,-0.2424,-0.2637,-0.2637,-0.2638,-0.2578,0,-0.1961,-0.2037,-0.2089,-0.2168,-0.221,-0.228,-0.2342,-0.2412,-0.2471,-0.2531,-0.2564,-0.2614,-0.2618,-0.2641,-0.265,-0.264,-0.2633,-0.2645,-0.258,-0.2577,-0.241,-0.2419,-0.2639,-0.2577,-0.2577,-0.2577,-0.2576,0,-0.1961,-0.2016,-0.2096,-0.2196,-0.2222,-0.2281,-0.238,-0.2443,-0.253,-0.2574,-0.2627,-0.2653,-0.2686,-0.2676,-0.2672,-0.2684,-0.2652,-0.2633,-0.263,-0.2445,-0.2405,-0.252,-0.2575,-0.2575,-0.2575,-0.2575,-0.2575,0,-0.1902,-0.2015,-0.208,-0.2117,-0.2238,-0.2293,-0.236,-0.2457,-0.2507,-0.26,-0.2633,-0.2682,-0.2702,-0.269,-0.2659,-0.2675,-0.2627,-0.2637,-0.2446,-0.2433,-0.2579,-0.2575,-0.2611,-0.2612,-0.2612,-0.2612,-0.2612,0,-0.1872,-0.1928,-0.2066,-0.21,-0.2176,-0.2273,-0.2355,-0.2428,-0.2521,-0.2551,-0.2647,-0.2649,-0.271,-0.2691,-0.2661,-0.2533,-0.2623,-0.2434,-0.2402,-0.2606,-0.2606,-0.2577,-0.2574,-0.261,-0.261,-0.2611,-0.2611,0,-0.1789,-0.1885,-0.1964,-0.2105,-0.2152,-0.2205,-0.2339,-0.2379,-0.2492,-0.253,-0.2557,-0.2633,-0.26,-0.2617,-0.2583,-0.2503,-0.242,-0.2349,-0.2547,-0.253,-0.223,-0.2232,-0.2132,-0.2125,-0.212,-0.2115,-0.2111,0,-0.1748,-0.1785,-0.1943,-0.1985,-0.2055,-0.2154,-0.2205,-0.2342,-0.2371,-0.2476,-0.2459,-0.249,-0.251,-0.2307,-0.2365,-0.2279,-0.2254,-0.2203,-0.2233,-0.22,-0.218,-0.219,-0.2198,-0.2102,-0.2101,-0.2099,-0.2098,0,-0.1658,-0.1734,-0.1797,-0.1883,-0.1954,-0.2016,-0.2099,-0.2099,-0.2222,-0.2357,-0.2273,-0.224,-0.2195,-0.2162,-0.211,-0.2056,-0.2239,-0.2145,-0.2157,-0.2184,-0.2163,-0.215,-0.2166,-0.2078,-0.2081,-0.2083,-0.2084,0,-0.1586,-0.1604,-0.1692,-0.1745,-0.1829,-0.1827,-0.1899,-0.1905,-0.1948,-0.2068,-0.2026,-0.2059,-0.2142,-0.2042,-0.199,-0.1929,-0.1911,-0.1856,-0.1883,-0.1905,-0.1863,-0.1804,-0.1562,0,0,0,0,0,-0.1499,-0.1497,-0.1539,-0.1576,-0.1647,-0.1677,-0.1795,-0.1866,-0.1988,-0.1863,-0.1936,-0.1876,-0.1803,-0.1832,-0.1719,-0.1911,-0.1934,-0.1777,-0.1889,-0.197,-0.1993,-0.1967,0,0,0,0,0,0,-0.1439,-0.1477,-0.1483,-0.1414,-0.139,-0.1431,-0.1487,-0.1574,-0.1521,-0.1657,-0.1619,-0.1739,-0.1696,-0.1805,-0.1662,-0.1675,-0.1704,-0.1823,-0.1817,-0.1958,-0.1978,-0.1996,-0.1977,0,0,0,0,0]},{"header":{"parameterUnit":"m.s-1","parameterCategory":2,"la1":30.2991,"la2":30.254,"lo1":-89.0895,"lo2":-89.0444,"dy":0.0017,"dx":0.0017,"nx":28,"ny":28,"refTime":"2026-02-26T03:00:00:Z","depth":"4","parameterNumber":3,"parameterNumberName":"V-component_of_CURRENTS"},"data":[0,0,0,0,0,0,0,0,0,0,0,0,0,0,0,0,0,0,0,0,0,0,0,0,0,0,0,0,0,0,0,0,0,0,0,0,0,0,0,0,0,0,0,0,0,0,0,0,0,0,0,0,0,0,0,0,0,0,-0.0264,-0.0263,0,-0.0212,-0.0211,-0.021,-0.0165,-0.0164,-0.0164,-0.0164,-0.0063,-0.0061,-0.0059,0,0,0,0,0,0,0,0,0,0,0,0,0,-0.029,-0.0289,-0.0264,-0.0263,-0.0263,-0.0212,-0.0211,-0.021,-0.0165,-0.0164,-0.0164,-0.0164,-0.0064,-0.0061,-0.0058,0,0,0,0,0,0,0,0,0,0,0,0,0,-0.0261,-0.0289,-0.0264,-0.0235,-0.0232,-0.0212,-0.0211,-0.021,-0.0165,-0.0164,-0.0164,-0.0163,-0.0065,-0.0061,-0.0058,-0.0048,0,0,-0.0047,-0.0046,0,0,0,0,0,0,0,0,-0.0262,-0.026,-0.024,-0.0237,-0.0234,-0.0196,-0.0183,-0.0154,-0.0165,-0.0189,-0.0164,-0.0163,-0.0104,-0.0098,-0.0088,-0.0043,-0.0039,-0.0047,-0.0045,-0.0043,-0.0042,0,0,0,0,0,0,0,-0.0265,-0.0261,-0.0241,-0.0239,-0.0236,-0.0213,-0.0209,-0.0177,-0.0148,-0.0187,-0.0184,-0.0181,-0.0102,-0.0091,-0.0085,-0.0037,-0.0047,-0.0044,-0.0042,-0.0041,0.0029,0.0029,0,0,0,0,0,0,-0.0277,-0.0264,-0.0243,-0.024,-0.0249,-0.0214,-0.0208,-0.0207,-0.015,-0.0141,-0.0181,-0.0179,-0.0097,-0.0089,-0.0081,-0.0062,-0.0043,-0.004,-0.0038,0.0029,0.0029,0.0029,0,0,0,0,0,0,-0.0277,-0.0275,-0.0245,-0.0252,-0.0246,-0.0214,-0.0213,-0.0206,-0.0197,-0.0146,-0.0136,-0.0179,-0.0097,-0.0086,-0.0058,-0.0057,-0.0039,-0.0035,0.003,0.0029,0.0029,-0.0025,0,0,0,0,0,0,-0.0278,-0.0276,-0.0283,-0.0253,-0.0247,-0.0244,-0.0213,-0.0206,-0.0197,-0.0193,-0.0141,-0.0131,-0.0095,-0.0063,-0.0054,-0.0052,-0.0033,0.003,0.0029,0.0029,-0.0023,-0.0027,-0.0031,0,0,0,0,0,-0.028,-0.0294,-0.0283,-0.0281,-0.0256,-0.0245,-0.024,-0.0213,-0.0197,-0.0201,-0.0162,-0.0133,-0.006,-0.0061,-0.005,-0.0047,0.003,0.0029,0.0029,-0.0021,-0.0026,-0.0031,0,0,0,0,0,0,-0.0309,-0.029,-0.0278,-0.0286,-0.0271,-0.0238,-0.024,-0.022,-0.0193,-0.0188,-0.0136,-0.0124,-0.0101,-0.0069,-0.0071,-0.0029,-0.001,-0.0008,-0.0051,-0.0056,-0.006,-0.0065,-0.003,0,0,0,0,0,-0.032,-0.0325,-0.0301,-0.0308,-0.0303,-0.0273,-0.0265,-0.0248,-0.022,-0.0207,-0.017,-0.013,-0.0095,-0.0072,-0.0043,-0.0018,0.0026,-0.0009,-0.0013,-0.0016,-0.0014,0.0054,0.0057,0.0027,0.0027,0.0027,0,0,-0.0333,-0.0324,-0.0327,-0.0315,-0.03,-0.0301,-0.0267,-0.0263,-0.0257,-0.02,-0.0183,-0.0147,-0.0095,-0.0069,-0.0055,-0.004,0.0013,-0.0017,-0.002,-0.0015,0.0054,0.0057,0.006,0.0026,0.0027,0.0027,0,0,-0.0366,-0.0355,-0.0371,-0.0363,-0.0349,-0.0328,-0.0331,-0.0302,-0.0284,-0.0267,-0.0222,-0.0183,-0.0139,-0.0092,-0.0064,-0.0071,-0.0017,-0.0066,-0.008,-0.0015,-0.0012,-0.0008,0.004,0.0048,-0.006,-0.006,-0.0061,0,-0.0384,-0.0396,-0.0375,-0.0386,-0.0383,-0.0345,-0.0357,-0.0335,-0.03,-0.028,-0.0272,-0.0186,-0.0146,-0.0091,-0.0095,-0.0078,-0.004,-0.0067,-0.0019,-0.0015,-0.001,0.0038,0.0048,-0.0063,-0.0063,-0.0063,-0.0062,0,-0.0424,-0.0434,-0.0444,-0.0443,-0.0437,-0.0443,-0.0411,-0.0397,-0.0371,-0.0337,-0.029,-0.023,-0.0173,-0.0156,-0.0128,-0.0075,-0.006,-0.0039,-0.0008,-0.001,0.0041,0.0052,-0.0067,-0.0066,-0.0065,-0.0065,0,0,-0.0462,-0.0471,-0.0475,-0.0484,-0.0467,-0.0467,-0.0456,-0.0427,-0.0412,-0.0366,-0.0333,-0.0266,-0.0224,-0.0189,-0.0139,-0.008,-0.0022,-0.0052,-0.0047,-0.0006,0.0112,0.0075,0.0084,0.0008,0.001,0.0011,0.013,0,-0.0499,-0.0538,-0.0525,-0.0552,-0.0566,-0.0528,-0.0522,-0.0488,-0.0447,-0.0407,-0.0322,-0.0279,-0.0238,-0.0211,-0.0144,-0.0055,0.0007,-0.0057,0.011,0.0114,0.0082,0.0095,0.0017,0.0139,0.0142,0.0144,0.0145,0,-0.0539,-0.056,-0.0599,-0.0605,-0.0606,-0.0616,-0.0589,-0.0576,-0.0503,-0.0469,-0.0395,-0.0329,-0.0235,-0.0205,-0.0037,-0.0081,0.0009,0.0081,0.0088,0.0082,0.0098,0.0147,0.0166,0.0165,0.0163,0.0162,0.016,0,-0.0578,-0.0606,-0.0641,-0.0646,-0.0647,-0.0655,-0.0649,-0.0598,-0.0584,-0.0503,-0.048,-0.0353,-0.0295,-0.016,-0.0017,-0.0022,0.0163,0.0181,0.0239,0.0237,0.026,0.0255,0.0307,0.0307,0.0307,0.0306,0.0306,0,-0.0615,-0.0644,-0.0669,-0.069,-0.0728,-0.0706,-0.0723,-0.0693,-0.0647,-0.0629,-0.0518,-0.0472,-0.0282,-0.0155,-0.0021,0.0135,0.0168,0.024,0.0269,0.0231,0.0222,0.0267,0.0261,0.0311,0.031,0.0309,0.0308,0,-0.0649,-0.0665,-0.0712,-0.0738,-0.0752,-0.078,-0.0794,-0.0796,-0.0746,-0.0718,-0.0696,-0.055,-0.0388,-0.0201,0.0023,0.0116,0.0278,0.0328,0.0261,0.0285,0.0311,0.03,0.0408,0.0408,0.0407,0.0407,0.0407,0,-0.0667,-0.0696,-0.076,-0.08,-0.082,-0.0859,-0.0885,-0.0854,-0.0849,-0.0767,-0.0752,-0.0596,-0.0484,-0.0194,-0.0003,0.0256,0.0289,0.0366,0.0351,0.0305,0.0324,0.0313,0.0304,0.0407,0.0407,0.0407,0.0407,0,-0.0699,-0.0729,-0.0768,-0.0858,-0.0909,-0.0954,-0.0982,-0.0983,-0.0935,-0.0899,-0.0786,-0.0624,-0.0443,-0.0208,-0.0011,0.0174,0.0312,0.0365,0.0367,0.0354,0.0305,0.0321,0.0312,0.0406,0.0406,0.0406,0.0406,0,-0.0721,-0.0764,-0.0828,-0.09,-0.0976,-0.1023,-0.103,-0.101,-0.099,-0.0888,-0.0855,-0.0645,-0.0515,-0.0251,-0.0069,0.0106,0.0152,0.0201,0.0212,0.0215,0.0117,0.0025,0.0069,0,0,0,0,0,-0.0735,-0.0787,-0.0864,-0.0942,-0.1021,-0.1058,-0.1083,-0.1071,-0.1028,-0.0959,-0.09,-0.0727,-0.0444,-0.0314,-0.0143,-0.0079,0.0172,0.0123,0.0232,0.0402,0.0403,0.0316,0,0,0,0,0,0,-0.0747,-0.0822,-0.0863,-0.0963,-0.1024,-0.1096,-0.1112,-0.1082,-0.1025,-0.096,-0.0803,-0.0711,-0.0429,-0.0546,-0.015,-0.0095,-0.0009,0.0263,0.0266,0.0402,0.0402,0.0403,0.0314,0,0,0,0,0]}]]